Regional Weather Roundup
Issued by NWS

Home | Current Version | Previous Version | Graphics & Text | Print | Product List | Glossary On
Versions: 1 2 3 4 5 6 7 8 9 10 11 12 13 14 15 16 17 18 19 20 21 22 23 24 25 26 27 28 29 30 31 32 33 34 35 36 37 38 39 40 41 42 43 44 45 46 47 48 49 50
000
ASUS43 KLMK 260010
RWRKY
KENTUCKY REGIONAL WEATHER ROUNDUP
NATIONAL WEATHER SERVICE LOUISVILLE KY
800 PM EDT SAT OCT 25 2014

NOTE "FAIR" INDICATES FEW OR NO CLOUDS BELOW 12,000 FEET
WITH NO SIGNIFICANT WEATHER AND/OR OBSTRUCTIONS TO VISIBILITY.

KYZ001>023-026-027-061>063-070>075-260100-
WESTERN AND SOUTH CENTRAL KENTUCKY

CITY           SKY/WX    TMP DP  RH WIND       PRES   REMARKS
PADUCAH        CLEAR     64  59  83 SW3       30.00S
HENDERSON      CLEAR    N/A N/A N/A CALM      29.99R
OWENSBORO      CLEAR     66  57  72 W3        30.00R
HOPKINSVILLE   CLEAR     69  63  81 NW2       30.01S
BOWLING GREEN  CLEAR     70  59  68 CALM      30.01R
GLASGOW        CLEAR     62  58  87 CALM      30.00R
$$

KYZ024-025-028>034-038-045-046-053-260100-
NORTH CENTRAL KENTUCKY

CITY           SKY/WX    TMP DP  RH WIND       PRES   REMARKS
LOUISVILLE/SDF CLEAR     69  57  65 SW13      29.96S
LOUISVILLE/LOU CLEAR     68  56  65 SW5       29.96F
FORT KNOX      CLEAR     62  56  80 SW6       29.98R
$$

KYZ035>037-039>044-047>052-055>060-089>105-260100-
NORTHEAST KENTUCKY

CITY           SKY/WX    TMP DP  RH WIND       PRES   REMARKS
LEXINGTON      CLEAR     64  56  75 SW7       29.97F
COVINGTON      PTCLDY    67  51  56 SW6       29.92S
FRANKFORT      CLEAR     62  56  80 SW5       29.95F
$$

KYZ054-064>069-076>088-106>120-260100-
SOUTHEAST KENTUCKY

CITY           SKY/WX    TMP DP  RH WIND       PRES   REMARKS
JACKSON        CLEAR     61  52  72 CALM      29.99R
LONDON         CLEAR     65  54  67 SW5       30.01R
SOMERSET       CLEAR     61  54  77 CALM      30.02S
MIDDLESBORO    PTCLDY    56  52  86 CALM      30.02S
MONTICELLO     CLEAR     53  50  90 CALM      30.03R
$$




USA.gov is the U.S. government's official web portal to all federal, state and local government web resources and services.